EUTELSAT 8 WEST B

Last updated on Wed Sep 09 2026 00:03:00 GMT+0000 (Coordinated Universal Time)

1 40875U 15039B 26251.30095253 -.00000086 00000+0 00000+0 0 9998 2 40875 0.0692 339.1783 0003521 185.5201 283.0516 1.00272714 40496
UTC large
Height (km)
Speed (km/s)
/
Latitude / Longitude
Inclination (degrees)
Orbital Period (minutes)
Azimuth
Elevation
Range (km)
Doppler Factor

Next 0 passes for location: London (51.5072 / 0.1276)

No passes found over London.
EUTELSAT 8 WEST B